OPS 4682 DEB, 14716

Orbit data source: Space-Track

OPS 4682 DEB, 14716 is space debris in LEO originally from a launch on Sat, 03 Apr 1965 UTC launched from the Air Force Western Test Range (AFWTR). Debris objects in space refer to the collection of defunct objects orbiting the Earth. Examples of debris include non-operational satellites, rocket bodies, and fragments generated from explosions, collisions, or faulty payload assembly.

Loading next visibility...
Identifier
14716, 1965-027P
Orbit
LEO
Country
Flag of USUS
Related business
Manufacturer
Unknown
Mission
Spacecraft
Bus & Motor
Unknown
Mass
Unknown
Launch date (UTC)
1965-04-03 (61 years ago)
Launch vehicle
Unknown
Launch site
Air Force Western Test Range (AFWTR)
Object type
Payload
Rocket body
Debris
Shape & HBR
Unknown shape, 0.1 m
Radar Cross Section
Medium (>0.1 m² and <1 m²)

Expand to show TLE details & history
Last TLE update: 2 days ago

TLE from 2 days ago
0 OPS 4682 DEB
1 14716U 65027P   26206.43770162 -.00000172  00000-0 -59735-3 0  9999
2 14716  90.2505  15.0580 0028306 208.0561 179.3158 12.99673712444443
Epoch: 2026-07-25T10:30Z
TLE epoch observation values (Epoch: 2026-07-25T10:30:17.419Z)
Latitude
27.41087°
Longitude
-85.79383°
Altitude
1,288.354 km
Speed
7.204 km/s
True Right ascension
00h 59m 42s
True Declination
27° 16' 49"
Sunlit
Object was in daylight at epoch
Visualization orbit readout
Latitude
Unknown
Longitude
Unknown
Altitude
Unknown
Speed
Unknown
Apparent Right ascension
Unknown
Apparent Declination
Unknown
Sunlit
N/A
Visualization observer readout
Local Sidereal Time
00:01:28
Azimuth
Unknown
Elevation
Unknown
Doppler factor
Unknown
Orbital elements
Apogee altitude
1,282.115 km
Perigee altitude
1,238.871 km
Semi-major axis
7,638.63 km
Eccentricity
0.00283
Inclination
90.2505°
RAAN
15.058°
Arg. of periapsis
208.0561°
True anomaly
179.31966°
Mean anomaly
179.3158°
Eccentric anomaly
179.31773°
Mean motion
3.25102 °/min
Orbital period
110.73 mins
BSTAR
-0.00059735
Loading maneuver chart data...
Computing Atmospheric mass density...
Loading historical data...
Loading historical data...
Loading historical data...
Loading historical data...
Loading historical data...
Loading historical data...
Loading historical data...

Documentation

Showing up to 5 results
|